KF5PJP Weather Reports


Display with metric or nautical units.
time (UTC)temp
F
wind
direction
speed
MPH
gust
MPH
rain 1hr
in
rain 24hr
in
rain mn
in
humidity
%
barometer
mb
20260905031449 85 88 0.0 1.0 0.00 0.00 0.00 69 1012.8
20260905031017 85 88 0.0 0.0 0.00 0.00 0.00 69 1012.8
20260905025949 85 88 0.0 0.0 0.00 0.00 0.00 68 1012.8
20260905024953 86 88 0.0 0.0 0.00 0.00 0.00 67 1012.7
20260905023955 86 88 0.0 0.0 0.00 0.00 0.00 67 1012.6
20260905023524 86 88 0.0 0.0 0.00 0.00 0.00 66 1012.5
20260905022514 86 88 0.0 0.0 0.00 0.00 0.00 66 1012.4
20260905021449 87 88 0.0 0.0 0.00 0.00 0.00 65 1012.4
20260905020008 87 88 0.0 0.0 0.00 0.00 0.00 63 1012.1
20260905015013 88 88 0.0 0.0 0.00 0.00 0.00 63 1012.0
20260905014445 88 88 0.0 0.0 0.00 0.00 0.00 62 1011.9
20260905013454 88 88 0.0 0.0 0.00 0.00 0.00 62 1011.8
20260905012949 88 88 0.0 0.0 0.00 0.00 0.00 61 1011.7
20260905011942 89 88 0.0 1.0 0.00 0.00 0.00 60 1011.7
20260905010941 89 87 0.0 1.0 0.00 0.00 0.00 59 1011.5
20260905005949 90 89 0.0 0.0 0.00 0.00 0.00 58 1011.6
20260905004944 90 89 0.0 0.0 0.00 0.00 0.00 57 1011.4
20260905003959 91 89 0.0 0.0 0.00 0.00 0.00 55 1011.4
20260905002957 92 89 0.0 1.0 0.00 0.00 0.00 55 1011.4
20260905002003 94 89 0.0 1.0 0.00 0.00 0.00 53 1011.4
20260905000956 94 105 0.0 1.0 0.00 0.00 0.00 52 1011.6
20260904235510 94 34 0.0 0.0 0.00 0.00 0.00 53 1011.4
20260904234934 94 290 0.0 1.0 0.00 0.00 0.00 53 1011.4
20260904234454 93 290 0.0 1.0 0.00 0.00 0.00 53 1011.4
20260904233439 94 290 0.0 1.0 0.00 0.00 0.00 53 1011.3
20260904232445 94 292 0.0 2.0 0.00 0.00 0.00 52 1011.3
20260904231456 95 260 0.0 0.0 0.00 0.00 0.00 52 1011.3
20260904231016 96 260 0.0 0.0 0.00 0.00 0.00 51 1011.3
20260904225958 97 261 0.0 1.0 0.00 0.00 0.00 50 1011.3
20260904224955 98 234 0.0 2.0 0.00 0.00 0.00 48 1011.3
20260904224002 97 273 0.0 2.0 0.00 0.00 0.00 48 1011.4
20260904222957 97 65 1.0 5.0 0.00 0.00 0.00 49 1011.3
20260904222001 98 86 0.0 1.0 0.00 0.00 0.00 46 1011.4
20260904221008 98 151 1.0 4.0 0.00 0.00 0.00 47 1011.4
20260904215954 99 107 0.0 1.0 0.00 0.00 0.00 46 1011.4
20260904214952 99 39 1.0 5.0 0.00 0.00 0.00 47 1011.4
20260904214531 98 331 0.0 5.0 0.00 0.00 0.00 49 1011.4
20260904213931 98 97 1.0 3.0 0.00 0.00 0.00 47 1011.5
20260904213514 98 96 1.0 3.0 0.00 0.00 0.00 47 1011.6
20260904212937 99 313 0.0 2.0 0.00 0.00 0.00 47 1011.7
20260904212513 99 91 0.0 2.0 0.00 0.00 0.00 48 1011.8
20260904212029 98 162 0.0 5.0 0.00 0.00 0.00 48 1011.9
20260904211444 98 103 1.0 4.0 0.00 0.00 0.00 48 1012.0
20260904211004 99 103 2.0 3.0 0.00 0.00 0.00 46 1011.9
20260904210506 98 82 1.0 3.0 0.00 0.00 0.00 50 1012.1
20260904210031 98 250 1.0 2.0 0.00 0.00 0.00 47 1012.1
20260904205500 99 132 0.0 4.0 0.00 0.00 0.00 47 1012.1
20260904205024 99 84 2.0 4.0 0.00 0.00 0.00 46 1012.1
20260904204443 99 129 0.0 3.0 0.00 0.00 0.00 48 1012.1
20260904203457 99 275 1.0 3.0 0.00 0.00 0.00 48 1012.3
20260904203020 99 80 1.0 3.0 0.00 0.00 0.00 47 1012.3
20260904202429 99 96 0.0 3.0 0.00 0.00 0.00 48 1012.5
20260904202010 99 97 0.0 3.0 0.00 0.00 0.00 49 1012.6
20260904200956 99 108 0.0 4.0 0.00 0.00 0.00 47 1012.7
20260904195946 98 284 0.0 2.0 0.00 0.00 0.00 48 1012.9
20260904194958 97 147 0.0 2.0 0.00 0.00 0.00 49 1013.0
20260904193956 98 105 1.0 5.0 0.00 0.00 0.00 47 1013.1
20260904192959 98 84 1.0 4.0 0.00 0.00 0.00 47 1013.3
20260904191943 97 278 0.0 6.0 0.00 0.00 0.00 48 1013.4
20260904191517 98 209 1.0 6.0 0.00 0.00 0.00 48 1013.4
20260904190449 98 71 0.0 3.0 0.00 0.00 0.00 50 1013.5
20260904185511 97 99 1.0 3.0 0.00 0.00 0.00 48 1013.5
20260904185026 98 225 0.0 2.0 0.00 0.00 0.00 51 1013.7
20260904184435 97 223 0.0 3.0 0.00 0.00 0.00 50 1013.7
20260904184001 98 272 1.0 2.0 0.00 0.00 0.00 48 1013.7
20260904182956 97 121 0.0 1.0 0.00 0.00 0.00 53 1013.8
20260904181951 96 338 0.0 3.0 0.00 0.00 0.00 55 1014.0
20260904181551 95 267 2.0 3.0 0.00 0.00 0.00 52 1014.1
20260904180502 95 254 1.0 3.0 0.00 0.00 0.00 55 1014.2
20260904175447 94 285 0.0 2.0 0.00 0.00 0.00 57 1014.4
20260904174442 92 275 1.0 3.0 0.00 0.00 0.00 59 1014.4
20260904174027 92 249 1.0 3.0 0.00 0.00 0.00 58 1014.5
20260904173442 93 269 1.0 2.0 0.00 0.00 0.00 59 1014.6
20260904172435 93 350 0.0 2.0 0.00 0.00 0.00 61 1014.6
20260904172011 94 279 1.0 2.0 0.00 0.00 0.00 59 1014.8
20260904171441 94 82 0.0 4.0 0.00 0.00 0.00 59 1014.9
20260904170455 93 137 0.0 0.0 0.00 0.00 0.00 60 1015.0
20260904170025 93 140 0.0 0.0 0.00 0.00 0.00 58 1015.1
20260904165450 92 140 0.0 1.0 0.00 0.00 0.00 61 1015.0
20260904165024 92 162 0.0 4.0 0.00 0.00 0.00 61 1015.1
20260904164432 93 88 1.0 4.0 0.00 0.00 0.00 59 1015.1
20260904164015 94 84 1.0 3.0 0.00 0.00 0.00 58 1015.2
20260904163528 94 86 0.0 2.0 0.00 0.00 0.00 60 1015.2
20260904162937 93 97 0.0 2.0 0.00 0.00 0.00 60 1015.2
20260904161955 91 82 1.0 2.0 0.00 0.00 0.00 63 1015.1
20260904160957 91 267 0.0 2.0 0.00 0.00 0.00 63 1015.1
20260904160526 91 219 0.0 3.0 0.00 0.00 0.00 66 1015.1
20260904155944 90 87 1.0 3.0 0.00 0.00 0.00 65 1015.1
20260904155512 90 97 0.0 3.0 0.00 0.00 0.00 68 1015.0
20260904154941 89 263 0.0 2.0 0.00 0.00 0.00 70 1015.1
20260904153957 88 279 1.0 2.0 0.00 0.00 0.00 70 1015.1
20260904153521 88 211 0.0 1.0 0.00 0.00 0.00 73 1015.1
20260904153001 87 178 0.0 1.0 0.00 0.00 0.00 75 1015.1
20260904151955 86 49 0.0 2.0 0.00 0.00 0.00 79 1015.1
20260904151522 85 90 0.0 2.0 0.00 0.00 0.00 81 1015.0
20260904150953 84 93 0.0 3.0 0.00 0.00 0.00 82 1015.0
20260904150522 84 93 1.0 4.0 0.00 0.00 0.00 83 1015.0
20260904145934 83 96 1.0 4.0 0.00 0.00 0.00 84 1015.0
20260904145522 83 85 0.0 0.0 0.00 0.00 0.00 85 1015.0
20260904144941 83 84 0.0 0.0 0.00 0.00 0.00 86 1015.1
20260904144527 82 209 0.0 0.0 0.00 0.00 0.00 87 1015.1
20260904144000 82 211 0.0 0.0 0.00 0.00 0.00 87 1015.1
20260904143531 82 209 0.0 0.0 0.00 0.00 0.00 87 1015.1
20260904142459 81 90 0.0 0.0 0.00 0.00 0.00 88 1015.0
20260904142033 81 252 0.0 0.0 0.00 0.00 0.00 89 1015.0
20260904141005 80 251 0.0 0.0 0.00 0.00 0.00 90 1015.0
20260904140002 80 251 0.0 0.0 0.00 0.00 0.00 90 1014.9
20260904134455 79 251 0.0 0.0 0.00 0.00 0.00 92 1014.8
20260904133512 79 251 0.0 0.0 0.00 0.00 0.00 93 1014.8
20260904132944 78 252 0.0 0.0 0.00 0.00 0.00 93 1014.8
20260904132528 78 223 0.0 0.0 0.00 0.00 0.00 94 1014.8
20260904132009 77 223 0.0 0.0 0.00 0.00 0.00 94 1014.7
20260904131429 77 222 0.0 0.0 0.00 0.00 0.00 95 1014.7
20260904131004 77 220 0.0 0.0 0.00 0.00 0.00 95 1014.6
20260904130004 76 221 0.0 0.0 0.00 0.00 0.00 95 1014.5
20260904125001 76 136 0.0 0.0 0.00 0.00 0.00 95 1014.4
20260904123946 75 136 0.0 0.0 0.00 0.00 0.00 95 1014.3
20260904122949 75 136 0.0 0.0 0.00 0.00 0.00 95 1014.3
20260904122520 75 136 0.0 0.0 0.00 0.00 0.00 95 1014.2
20260904121939 75 136 0.0 0.0 0.00 0.00 0.00 95 1014.2
20260904120944 75 136 0.0 0.0 0.00 0.00 0.00 95 1014.2
20260904120022 75 136 0.0 0.0 0.00 0.00 0.00 94 1014.0
20260904115450 75 136 0.0 0.0 0.00 0.00 0.00 94 1013.9
20260904114457 75 136 0.0 0.0 0.00 0.00 0.00 94 1013.9
20260904113452 75 136 0.0 0.0 0.00 0.00 0.00 94 1013.9
20260904112454 75 136 0.0 0.0 0.00 0.00 0.00 94 1013.9
20260904111953 75 136 0.0 0.0 0.00 0.00 0.00 94 1014.0
20260904110941 75 136 0.0 0.0 0.00 0.00 0.00 94 1013.9
20260904110512 75 136 0.0 0.0 0.00 0.00 0.00 93 1013.8
20260904105454 75 136 0.0 0.0 0.00 0.00 0.00 93 1013.9
20260904104447 76 136 0.0 0.0 0.00 0.00 0.00 93 1013.9
20260904104016 76 136 0.0 0.0 0.00 0.00 0.00 93 1013.9
20260904102955 76 136 0.0 0.0 0.00 0.00 0.00 93 1013.8
20260904102511 76 136 0.0 0.0 0.00 0.00 0.00 93 1013.8
20260904101959 76 136 0.0 0.0 0.00 0.00 0.00 93 1013.8
20260904100943 76 136 0.0 0.0 0.00 0.09 0.00 93 1013.6
20260904095949 76 136 0.0 0.0 0.00 0.09 0.00 93 1013.5
20260904094949 76 136 0.0 0.0 0.00 0.09 0.00 93 1013.4
20260904093948 76 136 0.0 0.0 0.00 0.09 0.00 93 1013.2
20260904092947 76 136 0.0 0.0 0.00 0.09 0.00 93 1013.2
20260904091954 76 136 0.0 0.0 0.00 0.09 0.00 93 1013.1
20260904091001 76 136 0.0 0.0 0.00 0.71 0.00 93 1013.2
20260904090009 76 136 0.0 0.0 0.00 0.71 0.00 93 1013.2
20260904085532 76 136 0.0 0.0 0.00 0.71 0.00 92 1013.2
20260904085048 76 136 0.0 0.0 0.00 0.71 0.00 92 1013.2
20260904084445 76 136 0.0 0.0 0.00 0.71 0.00 92 1013.2
20260904083506 76 136 0.0 0.0 0.00 0.71 0.00 92 1013.2
20260904082449 76 136 0.0 0.0 0.00 0.71 0.00 92 1013.1
20260904081453 76 136 0.0 0.0 0.00 0.81 0.00 92 1013.1
20260904080448 76 136 0.0 0.0 0.00 0.81 0.00 92 1013.1
20260904075437 76 136 0.0 0.0 0.00 0.81 0.00 92 1013.0
20260904074951 76 136 0.0 0.0 0.00 0.81 0.00 92 1013.0
20260904073952 76 136 0.0 0.0 0.00 0.81 0.00 92 1013.0
20260904073005 76 136 0.0 0.0 0.00 0.81 0.00 92 1013.0
20260904072004 76 136 0.0 0.0 0.00 0.81 0.00 92 1013.0
20260904070949 77 136 0.0 0.0 0.00 1.67 0.00 91 1013.0
20260904065939 77 136 0.0 0.0 0.00 1.67 0.00 91 1013.1
20260904065455 77 136 0.0 0.0 0.00 1.67 0.00 91 1013.1
20260904064956 77 136 0.0 0.0 0.00 1.67 0.00 90 1013.2
20260904064436 77 136 0.0 0.0 0.00 1.67 0.00 90 1013.2
20260904063954 77 136 0.0 0.0 0.00 1.67 0.00 90 1013.2
20260904063440 77 136 0.0 0.0 0.00 1.67 0.00 90 1013.2
20260904062937 77 136 0.0 0.0 0.00 1.67 0.00 90 1013.1
20260904062454 77 136 0.0 0.0 0.00 1.67 0.00 89 1013.1
20260904061955 77 136 0.0 0.0 0.00 1.67 0.00 89 1013.1
20260904061455 77 136 0.0 0.0 0.00 1.88 0.00 89 1013.1
20260904060945 78 136 0.0 0.0 0.00 1.88 0.00 88 1013.1
20260904060430 78 136 0.0 0.0 0.00 1.88 0.00 88 1013.0
20260904055957 78 136 0.0 0.0 0.00 1.88 0.00 88 1013.0
20260904055428 78 136 0.0 0.0 0.00 1.88 0.00 88 1013.0
20260904054935 78 136 0.0 0.0 0.00 1.88 0.00 87 1012.9
20260904054439 78 136 0.0 0.0 0.00 1.88 0.00 87 1012.9
20260904053953 78 136 0.0 0.0 0.00 1.88 0.00 87 1012.9
20260904053456 78 136 0.0 0.0 0.00 1.88 0.00 86 1012.8
20260904052956 78 136 0.0 0.0 0.00 1.88 0.00 86 1012.8
20260904052447 78 136 0.0 0.0 0.00 1.88 0.00 86 1012.9
20260904051930 79 136 0.0 0.0 0.00 1.88 0.00 85 1012.9
20260904051449 79 136 0.0 0.0 0.00 1.89 1.88 85 1012.9
20260904050940 79 136 0.0 0.0 0.00 1.89 1.88 85 1012.9
20260904050457 79 136 0.0 0.0 0.00 1.89 1.88 85 1012.9
20260904050022 79 136 0.0 0.0 0.00 1.89 1.88 84 1013.0
20260904044955 79 136 0.0 0.0 0.00 1.89 1.88 83 1013.0
20260904044525 79 136 0.0 0.0 0.00 1.89 1.88 83 1013.0
20260904043953 79 136 0.0 0.0 0.00 1.89 1.88 83 1013.1
20260904042949 79 136 0.0 0.0 0.00 1.89 1.88 82 1013.1
20260904042430 80 136 0.0 0.0 0.00 1.89 1.88 82 1013.2
20260904041955 80 136 0.0 0.0 0.00 1.89 1.88 81 1013.2
20260904040954 80 136 0.0 0.0 0.00 1.96 1.88 81 1013.1
20260904035953 80 136 0.0 0.0 0.00 1.96 1.88 81 1013.1
20260904035526 80 136 0.0 0.0 0.00 1.96 1.88 81 1013.1
20260904034939 80 111 0.0 0.0 0.00 1.96 1.88 80 1013.1
20260904033944 80 111 0.0 0.0 0.00 1.96 1.88 80 1013.1
20260904032939 81 112 0.0 0.0 0.00 1.96 1.88 79 1013.1
20260904032529 81 111 0.0 0.0 0.00 1.96 1.88 79 1013.2